Regional Weather Roundup
Issued by NWS Newport/Morehead, NC

Current Version | Previous Version | Graphics & Text | Print | Product List | Glossary On
Versions: 1 2 3 4 5 6 7 8 9 10 11 12 13 14 15 16 17 18 19 20 21 22 23 24 25 26 27 28 29 30 31 32 33 34 35 36 37 38 39 40 41 42 43 44 45 46 47 48 49 50
000 ASUS42 KMHX 280513 RWRMHX WEATHER ROUNDUP FOR EASTERN NORTH CAROLINA NATIONAL WEATHER SERVICE NEWPORT/MOREHEAD CITY NC 100 AM EDT SAT MAY 28 2016 NOTE: "FAIR" INDICATES FEW OR NO CLOUDS BELOW 12,000 FEET WITH NO SIGNIFICANT WEATHER AND/OR OBSTRUCTIONS TO VISIBILITY NCZ015>017-031-032-045>047-102-103-280600- NORTH COAST CITY SKY/WX TMP DP RH WIND PRES REMARKS EDENTON CLEAR N/A N/A N/A S3 30.17S ELIZABETH CITY CLEAR 65 63 93 S6 30.16F KITTY HAWK CLEAR 65 61 87 CALM 30.16F MANTEO NOT AVBL $$ NCZ045>047-081-094-103-104-280600- CENTRAL COAST CITY SKY/WX TMP DP RH WIND PRES REMARKS FRISCO PTCLDY 69 65 86 E5 30.16S $$ NCZ095-097-098-100-101-280600- SOUTHERN COAST CITY SKY/WX TMP DP RH WIND PRES REMARKS BEAUFORT PTCLDY 69 66 90 CALM 30.14S CEDAR ISLAND NOT AVBL JACKSONVILLE PTCLDY 68 63 84 NE3 30.13F PINEY ISLAND PTCLDY N/A N/A N/A E5 30.14F WILMINGTON MOCLDY 67 65 93 CALM 30.13F $$ NCZ011>013-027>030-043-044-078>080-089-090>093-098-280600- COASTAL PLAIN CITY SKY/WX TMP DP RH WIND PRES REMARKS AHOSKIE CLEAR 65 61 86 CALM 30.17S CLINTON CLEAR 63 61 94 CALM 30.15S ELIZABETHTOWN CLEAR 65 61 87 CALM 30.14S GOLDSBORO CLEAR 62 62 100 NE1 30.14S GREENVILLE CLEAR 63 61 94 CALM 30.17F HAVELOCK PTCLDY 66 61 84 CALM 30.15F KENANSVILLE CLEAR 57 55 92 CALM 30.16S KINSTON CLEAR 60 59 96 CALM 30.16S NEW BERN CLOUDY 63 59 87 CALM 30.15F RICHLANDS PTCLDY 61 59 93 CALM 30.15F ROCKY MOUNT CLEAR 64 59 83 CALM 30.16S WASHINGTON PTCLDY 63 60 92 CALM 30.15F WHITEVILLE MOCLDY 64 61 92 CALM 30.13S $$ AMZ130-135-150-152-154-156-158-170-250-252-270-ANZ085-086-088-633-658-670-280600- MARINE OBSERVATIONS STATION/POSITION TIME TEMP WIND PRES WAVE SWELL AIR SEA DIR/SP/G HT/PER HT/PER (UTC) (F) (DEG/KT/KT) (MB) (FT/S) (FT/S) CHESAPEAKE LIGHT 0500 70 180/ 15/ 16 1021.6 64 E VA BEACH 0450 66 62 180/ 8/ 8 1021.3 3/ 7 2/ 7 DUCK 0400 68 59 150/ 8/ 8 1021.1 2 E DUCK 0411 63 N/A 2/ 7 OREGON INLET 0400 69 78 140/ 4/ 5 1021.6 13E OREGON INLT 0500 68 N/A 3/ 5 2/ 5 HATTERAS CG 0400 74 74 110/ 1/ 3 1020.9 DIAMOND BUOY 0450 76 78 120/ 10/ 12 1020.9 3/ 8 3/ 8 CAPE LOOKOUT 0500 74 90/ 8/ 10 1020.2 BEAUFORT LAB 0400 74 73 90/ 3/ 6 1020.0 30 SE NEW RVR IN 0425 75 N/A 4/ 7 27 SE WRIGHTSVLE 0408 76 74 100/ 8/ 12 1019.8 5 SE WRIGHTSVLE 0408 75 74 90/ 8/ 10 1020.8 225 S CAPE HAT 0450 76 77 90/ 19/ 21 1017.7 7/ 8 5/ 8 41 SE CHARLESTON 0450 75 76 60/ 10/ 12 1018.2 4/ 7 3/ 7 $$

USA.gov is the U.S. government's official web portal to all federal, state and local government web resources and services.